{"data":{"norad_id":66081,"epoch":"2026-09-19T17:03:41.192352Z","epoch_age_seconds":171198,"freshness":"FRESH","line1":"1 66081U 25235Z   26262.71089343  .00016638  00000+0  54648-3 0  9994","line2":"2 66081  53.1604  62.1677 0000887  62.9347 297.1745 15.31713929 52659","mean_motion":15.31713929,"eccentricity":8.87e-5,"inclination_deg":53.1604,"raan_deg":62.1677,"arg_perigee_deg":62.9347,"mean_anomaly_deg":297.1745,"bstar":0.00054648,"rev_number":5265,"period_min":94.012333030106,"perigee_km":470.09098220957,"apogee_km":471.30596562265,"semimajor_km":6848.8354739161,"source":"CELESTRAK","updated_at":"2026-09-21T09:00:35.798878Z"}}